Location: Famechon
(49.7599°N, 2.0615°E)
Time: 22:20:29
(UTC+00:00)

Cosmos 1741 Rocket - Pass Details

Date: 24 March 2025
Orbit: 758 x 778 km, 74.0° (Epoch: 28 April)

Event Time Altitude Azimuth Distance (km) Brightness Sun altitude
Rises 02:56:10 0° 329° (NNW) 3,234 7.3 -26.1°
Reaches altitude 10° 02:58:46 10° 319° (NW) 2,306 6.4 -25.8°
Enters shadow 02:59:20 13° 315° (NW) 2,121 6.2 -25.7°
